[[{"header":{"parameterUnit":"m.s-1","parameterCategory":1,"la1":30.2991,"la2":30.254,"lo1":-89.0895,"lo2":-89.0444,"dy":0.0017,"dx":0.0017,"nx":28,"ny":28,"refTime":"2025-03-13T09:00:00:Z","depth":0,"parameterNumber":2,"parameterNumberName":"U-component_of_WINDS"},"data":[0,0,0,0,0,0,0,0,0,0,0,0,0,0,0,0,0,0,0,0,0,0,0,0,0,0,0,0,0,0,0,0,0,0,0,0,0,0,0,0,0,0,0,0,0,0,0,0,0,0,0,0,0,0,0,0,0,0,1.556,1.556,0,1.5565,1.5565,1.5565,1.5527,1.5526,1.5524,1.5523,1.553,1.5531,1.5532,0,0,0,0,0,0,0,0,0,0,0,0,0,1.5515,1.5516,1.556,1.556,1.556,1.5565,1.5565,1.5565,1.5527,1.5526,1.5524,1.5523,1.5529,1.5531,1.5532,0,0,0,0,0,0,0,0,0,0,0,0,0,1.5529,1.5516,1.556,1.5541,1.554,1.5565,1.5565,1.5565,1.5527,1.5526,1.5524,1.5522,1.5529,1.553,1.5532,1.5576,0,0,1.5538,1.5538,0,0,0,0,0,0,0,0,1.5528,1.5531,1.5544,1.5543,1.5541,1.5544,1.5552,1.5569,1.5528,1.5532,1.5523,1.5522,1.5536,1.5537,1.5541,1.5576,1.5576,1.5538,1.5539,1.554,1.554,0,0,0,0,0,0,0,1.5527,1.553,1.5562,1.5544,1.5542,1.5532,1.5533,1.5555,1.5543,1.5531,1.5529,1.553,1.5534,1.554,1.5541,1.5576,1.5538,1.5539,1.554,1.5541,1.5645,1.5647,0,0,0,0,0,0,1.5529,1.553,1.5562,1.5562,1.553,1.5535,1.5535,1.5544,1.5543,1.5541,1.5531,1.5528,1.5537,1.5539,1.5541,1.5591,1.554,1.5541,1.5542,1.5644,1.5646,1.5648,0,0,0,0,0,0,1.5528,1.5532,1.5562,1.5545,1.5548,1.5537,1.5548,1.5545,1.5551,1.5542,1.554,1.5539,1.5536,1.5539,1.5567,1.5591,1.5542,1.5544,1.5642,1.5644,1.5647,1.5692,0,0,0,0,0,0,1.5527,1.5532,1.5549,1.5546,1.5549,1.5588,1.555,1.5547,1.5554,1.555,1.5549,1.5547,1.5535,1.5565,1.5569,1.5592,1.5545,1.564,1.5643,1.5646,1.5688,1.5696,1.5702,0,0,0,0,0,1.5526,1.5562,1.555,1.5554,1.557,1.5589,1.5591,1.5576,1.5556,1.5572,1.5567,1.5547,1.5588,1.5568,1.5572,1.5597,1.5638,1.5642,1.5646,1.5685,1.5694,1.5702,0,0,0,0,0,0,1.5569,1.5561,1.5548,1.5585,1.5588,1.5583,1.5603,1.5587,1.5596,1.5592,1.5573,1.5573,1.5605,1.5603,1.5582,1.5638,1.5609,1.5614,1.5637,1.5646,1.5653,1.5652,1.5546,0,0,0,0,0,1.5583,1.5599,1.5591,1.5624,1.5626,1.5615,1.5622,1.5611,1.5613,1.5615,1.5611,1.5615,1.5628,1.5637,1.5649,1.5688,1.5686,1.5706,1.5713,1.5719,1.5723,1.5743,1.5751,1.566,1.566,1.566,0,0,1.5611,1.5609,1.5621,1.5633,1.5634,1.5651,1.5616,1.5636,1.5648,1.5618,1.5644,1.5641,1.5644,1.5677,1.5692,1.5677,1.5748,1.5724,1.5729,1.573,1.5747,1.5756,1.5764,1.5663,1.5662,1.5662,0,0,1.5672,1.5672,1.5699,1.57,1.5702,1.5694,1.57,1.5697,1.5694,1.572,1.5697,1.5711,1.5735,1.5737,1.5741,1.5801,1.5783,1.5805,1.5841,1.586,1.5867,1.5873,1.5893,1.5901,1.5809,1.581,1.581,0,1.5707,1.5732,1.5715,1.5735,1.5741,1.5714,1.574,1.5742,1.5748,1.5752,1.5736,1.5763,1.5763,1.5796,1.581,1.5815,1.5821,1.5805,1.5867,1.5873,1.5879,1.5898,1.5906,1.5812,1.5812,1.5812,1.5811,0,1.5775,1.5792,1.5813,1.5818,1.5826,1.585,1.5836,1.5846,1.5833,1.5826,1.5852,1.5851,1.5861,1.5868,1.5856,1.5899,1.5889,1.5871,1.5841,1.589,1.5908,1.5915,1.5816,1.5815,1.5814,1.5814,0,0,1.5864,1.5858,1.5866,1.5867,1.5866,1.5879,1.5901,1.591,1.5919,1.5923,1.594,1.596,1.5942,1.5947,1.5935,1.5952,1.5997,1.593,1.593,1.5942,1.6043,1.6056,1.6065,1.5985,1.5987,1.5988,1.6042,0,1.5922,1.5958,1.5943,1.5981,1.5995,1.5969,1.5987,1.5989,1.5983,1.5994,1.5987,1.6001,1.5977,1.5979,1.5995,1.5988,1.6017,1.5984,1.6,1.6001,1.6,1.6074,1.6089,1.6141,1.6049,1.605,1.6051,0,1.5995,1.6001,1.604,1.6035,1.6041,1.6058,1.6064,1.6076,1.6076,1.6071,1.6075,1.6059,1.6079,1.605,1.6077,1.6055,1.6061,1.6059,1.606,1.6061,1.6029,1.6076,1.6157,1.6164,1.6062,1.6061,1.606,0,1.6054,1.6073,1.6098,1.61,1.6095,1.6107,1.6106,1.6104,1.6111,1.6116,1.612,1.6129,1.6133,1.614,1.6126,1.6106,1.6155,1.6125,1.615,1.615,1.6161,1.616,1.6243,1.6166,1.6166,1.6166,1.6166,0,1.612,1.6145,1.6124,1.614,1.6166,1.6148,1.6174,1.617,1.6169,1.6183,1.6161,1.6174,1.6155,1.6167,1.6156,1.618,1.6182,1.6178,1.6175,1.6179,1.618,1.6182,1.6178,1.6168,1.6167,1.6167,1.6167,0,1.6191,1.6178,1.6204,1.6196,1.6195,1.6215,1.6208,1.6222,1.6214,1.6231,1.6234,1.6222,1.6234,1.6221,1.6233,1.6225,1.6257,1.6249,1.6256,1.6254,1.6279,1.6277,1.6366,1.6376,1.6293,1.6294,1.6295,0,1.6234,1.6252,1.6246,1.6253,1.6253,1.6265,1.6271,1.6253,1.626,1.6261,1.6274,1.6285,1.6292,1.6313,1.6304,1.6313,1.6304,1.6335,1.6305,1.6309,1.6303,1.6302,1.6303,1.6341,1.6342,1.6343,1.6343,0,1.6311,1.6303,1.6312,1.6318,1.6325,1.633,1.6332,1.634,1.6321,1.633,1.6342,1.6347,1.6358,1.6368,1.6374,1.6372,1.6355,1.6353,1.6359,1.6363,1.6367,1.6364,1.6272,1.6351,1.635,1.6349,1.6349,1.6349,1.6368,1.6382,1.6379,1.639,1.6389,1.6392,1.6404,1.6397,1.6406,1.6413,1.6402,1.6417,1.6415,1.6421,1.6421,1.6432,1.6419,1.6428,1.643,1.6433,1.6436,1.6365,1.6433,1.6433,1.6433,1.6433,1.6433,0,1.6442,1.6439,1.6449,1.6452,1.646,1.6442,1.6443,1.6451,1.6464,1.6464,1.6471,1.6484,1.6493,1.6485,1.6493,1.6503,1.6495,1.6506,1.6504,1.6504,1.6448,1.6441,1.6512,1.6512,1.6512,1.6512,1.6512,1.6512,1.6482,1.6504,1.6496,1.6518,1.6514,1.6528,1.653,1.6532,1.6531,1.6547,1.6554,1.6548,1.6545,1.6552,1.656,1.6557,1.6561,1.6574,1.6568,1.6516,1.6508,1.6501,1.6494,1.6575,1.6575,1.6623,1.6624,1.6624]},{"header":{"parameterUnit":"m.s-1","parameterCategory":1,"la1":30.2991,"la2":30.254,"lo1":-89.0895,"lo2":-89.0444,"dy":0.0017,"dx":0.0017,"nx":28,"ny":28,"refTime":"2025-03-13T09:00:00:Z","depth":0,"parameterNumber":3,"parameterNumberName":"V-component_of_WINDS"},"data":[0,0,0,0,0,0,0,0,0,0,0,0,0,0,0,0,0,0,0,0,0,0,0,0,0,0,0,0,0,0,0,0,0,0,0,0,0,0,0,0,0,0,0,0,0,0,0,0,0,0,0,0,0,0,0,0,0,0,3.3825,3.3826,0,3.3936,3.3937,3.3938,3.3902,3.39,3.3898,3.3895,3.4004,3.4009,3.4014,0,0,0,0,0,0,0,0,0,0,0,0,0,3.3577,3.3582,3.3825,3.3826,3.3828,3.3936,3.3937,3.3939,3.3903,3.39,3.3897,3.3894,3.4002,3.4008,3.4014,0,0,0,0,0,0,0,0,0,0,0,0,0,3.3686,3.3583,3.3825,3.3823,3.3824,3.3935,3.3937,3.3939,3.3903,3.39,3.3896,3.3893,3.4,3.4008,3.4015,3.4134,0,0,3.4039,3.4042,0,0,0,0,0,0,0,0,3.368,3.3695,3.3822,3.3823,3.3825,3.3902,3.389,3.4004,3.3904,3.3873,3.3895,3.3891,3.3972,3.3982,3.4011,3.4139,3.4143,3.4039,3.4044,3.4047,3.4049,0,0,0,0,0,0,0,3.3672,3.369,3.3869,3.3824,3.3825,3.3815,3.3826,3.3911,3.3941,3.3875,3.3873,3.3887,3.3972,3.4003,3.4013,3.4145,3.4039,3.4046,3.4051,3.4054,3.4376,3.4379,0,0,0,0,0,0,3.3665,3.3684,3.3865,3.3872,3.3742,3.3822,3.3835,3.388,3.394,3.3946,3.389,3.3885,3.3992,3.4004,3.4017,3.416,3.4047,3.4054,3.4059,3.4372,3.4376,3.4381,0,0,0,0,0,0,3.3659,3.3681,3.3861,3.3778,3.38,3.383,3.3882,3.3885,3.3916,3.3951,3.3956,3.3916,3.399,3.4006,3.4105,3.4163,3.4058,3.4065,3.4367,3.4373,3.4379,3.4447,0,0,0,0,0,0,3.3652,3.3679,3.3726,3.3779,3.3804,3.3949,3.3885,3.3889,3.3929,3.3924,3.3977,3.3983,3.3988,3.4094,3.4113,3.4172,3.4071,3.4362,3.437,3.4377,3.444,3.4454,3.4467,0,0,0,0,0,3.3644,3.374,3.3729,3.3751,3.3864,3.3953,3.3967,3.3973,3.3934,3.3981,3.4003,3.3981,3.4153,3.4105,3.4125,3.4187,3.4358,3.4367,3.4376,3.4433,3.4452,3.4467,0,0,0,0,0,0,3.3692,3.3747,3.3735,3.3852,3.3898,3.3947,3.4006,3.3992,3.4049,3.4041,3.4044,3.4057,3.4159,3.4183,3.4127,3.4305,3.425,3.4263,3.4286,3.4304,3.4317,3.431,3.4077,0,0,0,0,0,3.3716,3.3786,3.3829,3.3928,3.3952,3.3975,3.4014,3.4014,3.4062,3.4081,3.4111,3.4157,3.4221,3.4263,3.4324,3.4442,3.4453,3.4495,3.4509,3.452,3.4532,3.4596,3.4615,3.441,3.441,3.441,0,0,3.3767,3.3805,3.3849,3.3938,3.3974,3.4045,3.3991,3.4068,3.412,3.4092,3.4189,3.4212,3.4263,3.4372,3.4422,3.4395,3.459,3.4531,3.454,3.4546,3.4607,3.4626,3.4644,3.4416,3.4415,3.4414,0,0,3.3895,3.3932,3.4018,3.4056,3.4111,3.4126,3.4146,3.4198,3.4213,3.431,3.429,3.435,3.4461,3.4499,3.4532,3.4674,3.4656,3.4694,3.4766,3.4828,3.4845,3.4859,3.491,3.4928,3.4705,3.4705,3.4706,0,3.3951,3.4059,3.4064,3.4143,3.4183,3.4161,3.4248,3.4283,3.4355,3.4383,3.4352,3.4491,3.4523,3.4641,3.4676,3.4704,3.4727,3.4688,3.4842,3.4856,3.487,3.4919,3.4938,3.471,3.4709,3.4709,3.4708,0,3.4124,3.4199,3.4261,3.4334,3.438,3.4463,3.4479,3.4525,3.4521,3.4538,3.4637,3.4675,3.4744,3.4771,3.4767,3.4889,3.487,3.4841,3.4786,3.4894,3.494,3.4959,3.4716,3.4714,3.4713,3.4712,0,0,3.4288,3.4362,3.4385,3.4418,3.4477,3.4534,3.4615,3.4684,3.4723,3.4773,3.484,3.4934,3.4908,3.4945,3.4945,3.5,3.5111,3.4964,3.4965,3.499,3.5247,3.527,3.5291,3.5098,3.5102,3.5104,3.5243,0,3.4422,3.4567,3.4573,3.4704,3.4773,3.4753,3.4823,3.4866,3.4884,3.4943,3.4962,3.5029,3.4988,3.5011,3.5064,3.5086,3.5162,3.5076,3.516,3.5163,3.515,3.5315,3.534,3.5469,3.5261,3.5264,3.5266,0,3.4599,3.4657,3.4795,3.4845,3.4874,3.4937,3.5001,3.5058,3.5106,3.5115,3.5157,3.5149,3.523,3.5171,3.5282,3.5224,3.5258,3.5273,3.5278,3.5288,3.5222,3.533,3.551,3.553,3.5294,3.5292,3.529,0,3.4706,3.4817,3.4915,3.4943,3.5003,3.5048,3.5075,3.512,3.516,3.5215,3.5241,3.5304,3.5338,3.5386,3.5394,3.5351,3.5506,3.5448,3.5515,3.5515,3.555,3.5548,3.5739,3.557,3.557,3.5569,3.5569,0,3.4856,3.4942,3.4963,3.5024,3.5118,3.5124,3.5217,3.524,3.5279,3.5342,3.5327,3.5386,3.5393,3.5454,3.546,3.5551,3.5566,3.5575,3.5576,3.5578,3.5577,3.5601,3.5593,3.5575,3.5573,3.5572,3.5572,0,3.4992,3.501,3.5115,3.5164,3.5178,3.5246,3.5286,3.5343,3.5359,3.5439,3.5458,3.5482,3.5552,3.5565,3.5647,3.5652,3.5761,3.5752,3.5746,3.5745,3.5812,3.5806,3.6027,3.6057,3.5867,3.5869,3.587,0,3.5088,3.5153,3.521,3.5252,3.5281,3.5349,3.5391,3.5398,3.5442,3.5501,3.5551,3.562,3.5676,3.5788,3.5812,3.5875,3.5868,3.5941,3.5878,3.5877,3.5871,3.5867,3.5874,3.5954,3.5956,3.5958,3.5959,0,3.5256,3.5262,3.5324,3.539,3.5441,3.5492,3.5541,3.5575,3.5588,3.5638,3.5711,3.5755,3.5839,3.5908,3.597,3.5995,3.598,3.5979,3.5998,3.6001,3.5995,3.6,3.5781,3.5974,3.5972,3.5971,3.5971,3.597,3.5376,3.5433,3.5482,3.5552,3.5589,3.5635,3.5691,3.5714,3.5776,3.5847,3.5846,3.5926,3.597,3.6053,3.6082,3.6144,3.612,3.6148,3.6155,3.6162,3.6169,3.5984,3.6155,3.6154,3.6154,3.6154,3.6153,0,3.5544,3.5574,3.5638,3.5708,3.5762,3.5744,3.5796,3.5843,3.5914,3.5958,3.6013,3.6097,3.6163,3.6192,3.6257,3.63,3.6295,3.6317,3.6315,3.6321,3.6186,3.6163,3.6321,3.6321,3.6321,3.632,3.632,3.632,3.5638,3.5735,3.5746,3.5861,3.589,3.597,3.6001,3.6043,3.6078,3.6173,3.6228,3.6247,3.6285,3.6353,3.6412,3.6419,3.6444,3.647,3.6473,3.6347,3.633,3.6314,3.6293,3.6475,3.6475,3.6603,3.6605,3.6605]}]]